Location: Songkhla
(7.2000°N, 100.6000°E)
Time: 01:07:21
(UTC+07:00)

ISS - All Passes

Search period start: 17 April 2026 00:00
Search period end: 27 April 2026 00:00
Orbit: 415 x 424 km, 51.6° (Epoch: 15 April)

Date Brightness Start Highest point End Pass type
(mag) Time Alt. Az. Time Alt. Az. Time Alt. Az.
17 Apr - 03:15:08 10° SW 03:18:29 80° NW 03:21:48 10° NNE night (unlit)
17 Apr - 13:14:15 10° NE 13:14:57 10° NE 13:15:40 10° ENE daylight
17 Apr - 14:48:45 10° WNW 14:51:38 26° SW 14:54:32 10° S daylight
18 Apr - 02:27:59 10° SSW 02:31:08 39° SE 02:34:17 10° NE night (unlit)
18 Apr - 14:00:57 10° NW 14:04:18 63° SW 14:07:39 10° SSE daylight
19 Apr - 01:41:28 10° S 01:43:48 18° SE 01:46:08 10° E night (unlit)
19 Apr - 03:18:28 10° W 03:20:26 15° NW 03:22:24 10° NNW night (unlit)
19 Apr - 13:13:39 10° NNW 13:16:57 50° NE 13:20:14 10° SE daylight
20 Apr - 02:30:01 10° WSW 02:33:01 31° NW 02:36:02 10° NNE night (unlit)
20 Apr - 12:26:51 10° N 12:29:33 22° NE 12:32:16 10° ESE daylight
20 Apr - 14:04:44 10° W 14:06:08 12° SW 14:07:34 10° SSW daylight
21 Apr - 01:42:19 10° SW 01:45:38 78° NW 01:48:58 10° NNE night (unlit)
21 Apr - 11:41:17 10° NE 11:42:06 11° NE 11:42:56 10° ENE daylight
21 Apr - 13:15:55 10° WNW 13:18:46 26° SW 13:21:39 10° S daylight
22 Apr - 00:55:07 10° SSW 00:58:16 40° SE 01:01:25 10° NE night (unlit)
22 Apr - 12:28:03 10° NW 12:31:24 62° SW 12:34:45 10° SSE daylight
23 Apr - 00:08:32 10° S 00:10:54 18° SE 00:13:15 10° E night (unlit)
23 Apr - 01:45:36 10° W 01:47:31 14° NW 01:49:26 10° NNW night (unlit)
23 Apr - 11:40:42 10° NNW 11:44:00 51° NE 11:47:17 10° SE daylight
24 Apr - 00:57:05 10° WSW 01:00:04 30° NW 01:03:03 10° N night (unlit)
24 Apr - 10:53:51 10° N 10:56:34 22° NE 10:59:17 10° ESE daylight
24 Apr - 12:31:48 10° W 12:33:09 12° SW 12:34:31 10° SSW daylight
25 Apr - 00:09:19 10° SW 00:12:38 77° NW 00:15:58 10° NNE night (unlit)
25 Apr - 10:08:11 10° NE 10:09:05 11° NE 10:09:58 10° ENE daylight
25 Apr - 11:42:53 10° WNW 11:45:45 25° SW 11:48:36 10° S daylight
25 Apr - 23:22:04 10° SSW 23:25:13 41° SE 23:28:23 10° NE night (unlit)
26 Apr - 10:55:00 10° NW 10:58:19 61° SW 11:01:40 10° SSE daylight
26 Apr - 22:35:25 10° S 22:37:48 18° SE 22:40:10 10° E night (unlit)
